"Pseudo-MPEC" for S509575

Created 2016 May 27 13:30:02 UT using Find_Orb

Astrometry:
     S509575 tC2016 05 27.20316 14 01 18.45 -01 05 55.4          12.6 R      Y00
     S509575 tC2016 05 27.20464 14 01 39.77 -01 03 13.6          12.7 R      Y00
     S509575 tC2016 05 27.20643 14 02 05.54 -00 59 58.2          12.5 R      Y00
     S509575  C2016 05 27.22919 14 07 38.79 -00 18 46.9          11.9 R      Y00
     S509575 tC2016 05 27.22948 14 07 43.11 -00 18 15.7          12.6 R      Y00
     S509575  C2016 05 27.22975 14 07 47.19 -00 17 45.5          12.0 R      Y00
     S509575 tC2016 05 27.23008 14 07 52.15 -00 17 09.3          12.8 R      Y00
     S509575  C2016 05 27.23092 14 08 04.64 -00 15 39.0          12.0 R      Y00
     S509575  C2016 05 27.23119 14 08 08.48 -00 15 11.0          12.1 R      Y00
     S509575 tC2016 05 27.23148 14 08 12.97 -00 14 39.1          12.4 R      Y00
     S509575 tC2016 05 27.23181 14 08 17.80 -00 14 03.5          12.5 R      Y00
     S509575 tC2016 05 27.23255 14 08 28.80 -00 12 43.6          12.5 R      Y00
     S509575  C2016 05 27.23283 14 08 33.12 -00 12 12.6          12.1 R      Y00
     S509575  C2016 05 27.23310 14 08 36.95 -00 11 45.2          12.0 R      Y00
     S509575 tC2016 05 27.23338 14 08 41.28 -00 11 14.2          12.8 R      Y00
     S509575 tC2016 05 27.23369 14 08 46.03 -00 10 39.3          12.5 R      Y00
     S509575  C2016 05 27.23438 14 08 56.26 -00 09 25.6          11.8 R      Y00
     S509575  C2016 05 27.23502 14 09 05.75 -00 08 17.0          12.2 R      Y00
     S509575 tC2016 05 27.23530 14 09 10.15 -00 07 45.9          12.6 R      Y00
     S509575  C2016 05 27.23559 14 09 14.41 -00 07 15.1          12.2 R      Y00
     S509575  C2016 05 27.23627 14 09 24.62 -00 06 01.7          12.0 R      Y00
     S509575  C2016 05 27.23671 14 09 31.23 -00 05 14.6          12.2 R      Y00
     S509575 tC2016 05 27.23700 14 09 35.57 -00 04 43.0          12.5 R      Y00
     S509575  C2016 05 27.23769 14 09 46.07 -00 03 27.8          11.7 R      Y00

Station data:
(Y00) SONEAR Observatory, Oliveira (S20.71513 W44.78496)  Brazil.   Observers
    C. Jacques, E. Pimentel, J. Barros.  Measurer C. Jacques.  0.28-m f/2.2
    astrograph + CCD.

Orbital elements:  S509575
   Perigee 2016 May 25.892310 +/- 0.134 TT = 21:24:55 (JD 2457534.392310)
Epoch 2016 May 27.0 TT = JDT 2457535.5                        Find_Orb
M 155.86959 +/- 6                   (J2000 equatorial)
n 140.71586392 +/- 12.6             Peri.  171.87121 +/- 2.7
a 79014.7430 +/- 4707               Node   218.48120 +/- 0.06
e   0.3417141 +/- 0.0456            Incl.   23.45492 +/- 0.08
P3683.95m/2.558d           H 27.0   G  0.15   U 14.4  
q 52014.2857 +/- 6488    Q 106015.200 +/- 2633
From 24 observations 2016 May 27 (49.7 min); mean residual 0".821
Residuals in arcseconds: 
160527 Y00 .474- .266-    160527 Y00 1.65- .672-    160527 Y00 .177- .082+    
160527 Y00 .312+ .056+    160527 Y00 .811+ .120-    160527 Y00 1.70- .416-    
160527 Y00 .187+ .256+    160527 Y00 .611- .188-    160527 Y00 1.31+ .459+    
160527 Y00 .196- .293-    160527 Y00 1.39- .254-    160527 Y00 .054- .043-    
160527 Y00 .106- .463-    160527 Y00 .644+ .493+    160527 Y00 .036- .026-    
160527 Y00 .824+ .534+    160527 Y00 2.46- 1.28-    160527 Y00 .050- .400-    
160527 Y00 1.53+ 1.04+    160527 Y00 .326- .521-    160527 Y00 .341- .086-    
160527 Y00 1.14+ .516+    160527 Y00 1.35+ .895+    160527 Y00 1.47+ .690+    

Ephemerides (geocentric):
Date (UTC) HH   RA              Dec         delta   r     elong  mag  LuElo " sig PA
---- -- -- --  ------------   ------------  ------ ------ -----  ---  ----- ---- ---
2016 05 27 13  15 48 41.757   +07 55 07.07   99788 1.0139 149.8 12.5  79.0  317 109
2016 05 27 14  16 01 51.239   +09 13 35.94   98311 1.0139 149.1 12.5  76.7  396 100
2016 05 27 15  16 15 32.200   +10 32 42.19   96680 1.0139 148.1 12.5  74.4  531  92
2016 05 27 16  16 29 50.072   +11 52 18.30   94894 1.0139 146.6 12.5  72.0  739  86
2016 05 27 17  16 44 51.055   +13 12 12.14   92957 1.0139 144.8 12.5  69.5 1038  82
2016 05 27 18  17 00 42.261   +14 32 05.29   90871 1.0139 142.6 12.5  66.8 1448  79
2016 05 27 19  17 17 31.876   +15 51 30.71   88640 1.0138 140.1 12.5  64.1 1998  78
2016 05 27 20  17 35 29.332   +17 09 49.53   86269 1.0138 137.2 12.5  61.2 2719  78
2016 05 27 21  17 54 45.470   +18 26 06.85   83765 1.0138 133.8 12.5  58.1 3652  78
2016 05 27 22  18 15 32.666   +19 39 06.01   81140 1.0138 130.1 12.6  54.9 4847  79
2016 05 27 23  18 38 04.863   +20 47 01.26   78404 1.0137 126.0 12.6  51.6 6368  80
2016 05 28 00  19 02 37.402   +21 47 28.47   75577 1.0137 121.3 12.7  48.2 8291  82
2016 05 28 01  19 29 26.524   +22 37 14.36   72681 1.0136 116.2 12.7  44.8 178'  84
2016 05 28 02  19 58 48.328   +23 12 05.09   69747 1.0136 110.6 12.8  41.5 228'  87
2016 05 28 03  20 30 56.977   +23 26 37.62   66815 1.0135 104.3 12.9  38.5 291'  90
2016 05 28 04  21 06 02.043   +23 14 19.29   63936 1.0135  97.5 13.1  36.1 368'  93
2016 05 28 05  21 44 05.205   +22 27 45.23   61173 1.0135  89.9 13.3  35.0 461'  97
2016 05 28 06  22 24 57.078   +20 59 25.44   58607 1.0134  81.6 13.6  35.7 573' 101
2016 05 28 07  23 08 15.592   +18 43 10.41   56328 1.0134  72.7 13.9  38.6 703' 104
2016 05 28 08  23 53 27.354   +15 36 11.24   54438 1.0133  63.4 14.5  43.7 850' 108
2016 05 28 09  00 39 52.282   +11 41 05.67   53039 1.0133  53.8 15??  50.8  16d 110
2016 05 28 10  01 26 49.853   +07 07 15.55   52217 1.0132  44.6 16??  59.3  19d 112
2016 05 28 11  02 13 44.094   +02 10 18.13   52029 1.0132  36.7 17??  68.7  22d 113
2016 05 28 12  03 00 05.326   -02 50 28.91   52489 1.0132  31.6 17??  78.4  24d 113
2016 05 28 13  03 45 28.912   -07 36 00.38   53563 1.0132  30.5 18??  88.1  26d 112
2016 05 28 14  04 29 32.972   -11 50 59.06   55181 1.0132  33.4 17??  97.3  27d 110
2016 05 28 15  05 11 57.061   -15 25 54.46   57247 1.0132  38.9 17?? 105.9  28d 108
2016 05 28 16  05 52 22.600   -18 17 07.41   59659 1.0133  45.5 16?? 113.7  28d 105
2016 05 28 17  06 30 34.485   -20 25 36.62   62319 1.0133  52.3 15?? 120.6  28d 102
2016 05 28 18  07 06 22.745   -21 55 17.87   65139 1.0133  58.9 15?? 126.8  28d  98
2016 05 28 19  07 39 43.336   -22 51 32.41   68048 1.0134  65.3 14.8 132.1  27d  95
2016 05 28 20  08 10 37.854   -23 20 00.60   70986 1.0134  71.2 14.5 136.6  26d  92
2016 05 28 21  08 39 12.436   -23 26 01.86   73908 1.0135  76.7 14.3 140.4  25d  89
2016 05 28 22  09 05 36.337   -23 14 15.32   76779 1.0135  81.9 14.1 143.6  25d  87
2016 05 28 23  09 30 00.565   -22 48 33.97   79570 1.0136  86.7 14.0 146.0  24d  84
2016 05 29 00  09 52 36.785   -22 12 06.45   82261 1.0136  91.2 13.9 147.8  23d  82
2016 05 29 01  10 13 36.552   -21 27 22.36   84837 1.0136  95.4 13.8 149.1  22d  80
2016 05 29 02  10 33 10.831   -20 36 18.69   87286 1.0137  99.3 13.7 149.8  22d  79
2016 05 29 03  10 51 29.743   -19 40 25.96   89600 1.0137 103.1 13.6 150.0  21d  77
2016 05 29 04  11 08 42.463   -18 40 53.74   91771 1.0138 106.6 13.6 149.9  20d  76
2016 05 29 05  11 24 57.217   -17 38 35.17   93796 1.0138 109.9 13.5 149.4  20d  74
2016 05 29 06  11 40 21.334   -16 34 10.56   95670 1.0139 113.1 13.4 148.6  19d  73
2016 05 29 07  11 55 01.324   -15 28 10.35   97393 1.0139 116.1 13.4 147.6  19d  72
2016 05 29 08  12 09 02.974   -14 20 57.26   98960 1.0140 119.0 13.3 146.4  18d  71
2016 05 29 09  12 22 31.438   -13 12 48.10  100373 1.0140 121.7 13.3 145.1  18d  71
2016 05 29 10  12 35 31.328   -12 03 55.07  101630 1.0140 124.3 13.2 143.6  18d  70
2016 05 29 11  12 48 06.793   -10 54 26.78  102729 1.0141 126.9 13.2 142.1  17d  69
2016 05 29 12  13 00 21.596   -09 44 29.07  103672 1.0141 129.3 13.1 140.5  17d  69
2016 05 29 13  13 12 19.179   -08 34 05.59  104459 1.0141 131.6 13.1 138.8  17d  68
2016 05 29 14  13 24 02.721   -07 23 18.30  105088 1.0142 133.8 13.0 137.1  17d  68
2016 05 29 15  13 35 35.196   -06 12 07.82  105560 1.0142 135.9 13.0 135.3  17d  67
2016 05 29 16  13 46 59.418   -05 00 33.73  105875 1.0142 137.8 12.9 133.5  16d  67
2016 05 29 17  13 58 18.086   -03 48 34.81  106033 1.0143 139.7 12.9 131.6  16d  67
2016 05 29 18  14 09 33.830   -02 36 09.23  106034 1.0143 141.5 12.8 129.7  16d  67
2016 05 29 19  14 20 49.251   -01 23 14.73  105878 1.0143 143.1 12.8 127.7  16d  67
2016 05 29 20  14 32 06.958   -00 09 48.73  105565 1.0143 144.5 12.8 125.6  16d  67
2016 05 29 21  14 43 29.617   +01 04 11.46  105095 1.0143 145.8 12.7 123.5  16d  67
2016 05 29 22  14 54 59.987   +02 18 48.54  104468 1.0143 146.9 12.7 121.4  16d  67
2016 05 29 23  15 06 40.972   +03 34 04.99  103684 1.0143 147.8 12.6 119.1  17d  67
2016 05 30 00  15 18 35.672   +04 50 02.91  102743 1.0143 148.4 12.6 116.8  17d  67